[[{"header":{"parameterUnit":"m.s-1","parameterCategory":2,"la1":30.2991,"la2":30.254,"lo1":-89.0895,"lo2":-89.0444,"dy":0.0017,"dx":0.0017,"nx":28,"ny":28,"refTime":"2023-10-23T09:00:00:Z","depth":"0","parameterNumber":2,"parameterNumberName":"U-component_of_CURRENTS"},"data":[0,0,0,0,0,0,0,0,0,0,0,0,0,0,0,0,0,0,0,0,0,0,0,0,0,0,0,0,0,0,0,0,0,0,0,0,0,0,0,0,0,0,0,0,0,0,0,0,0,0,0,0,0,0,0,0,0,0,-0.2616,-0.2618,0,-0.2734,-0.2734,-0.2735,-0.278,-0.2781,-0.2781,-0.2782,-0.2753,-0.2752,-0.2751,0,0,0,0,0,0,0,0,0,0,0,0,0,-0.2522,-0.2522,-0.2616,-0.2618,-0.262,-0.2734,-0.2734,-0.2735,-0.278,-0.2781,-0.2781,-0.2782,-0.2754,-0.2752,-0.2751,0,0,0,0,0,0,0,0,0,0,0,0,0,-0.2586,-0.2522,-0.2615,-0.2662,-0.2668,-0.2733,-0.2734,-0.2735,-0.278,-0.2781,-0.2781,-0.2782,-0.2754,-0.2753,-0.2751,-0.2728,0,0,-0.2746,-0.2745,0,0,0,0,0,0,0,0,-0.2582,-0.2588,-0.2653,-0.2659,-0.2666,-0.275,-0.2692,-0.2729,-0.278,-0.2729,-0.2782,-0.2782,-0.2744,-0.2743,-0.2754,-0.2727,-0.2726,-0.2746,-0.2745,-0.2744,-0.2743,0,0,0,0,0,0,0,-0.2577,-0.2584,-0.2654,-0.2656,-0.2664,-0.271,-0.2718,-0.2699,-0.2722,-0.2734,-0.2739,-0.2765,-0.2745,-0.2756,-0.2754,-0.2725,-0.2746,-0.2744,-0.2743,-0.2742,-0.2711,-0.2712,0,0,0,0,0,0,-0.2573,-0.2579,-0.2651,-0.2659,-0.2634,-0.2711,-0.272,-0.2716,-0.2726,-0.2732,-0.2765,-0.2767,-0.2758,-0.2755,-0.2753,-0.2747,-0.2744,-0.2742,-0.2741,-0.2711,-0.2711,-0.2712,0,0,0,0,0,0,-0.257,-0.2577,-0.2646,-0.263,-0.2643,-0.2712,-0.2708,-0.2718,-0.2737,-0.2753,-0.2754,-0.2775,-0.2759,-0.2755,-0.2763,-0.2745,-0.2741,-0.274,-0.2711,-0.2711,-0.2712,-0.2722,0,0,0,0,0,0,-0.2566,-0.2574,-0.2575,-0.2628,-0.2644,-0.2699,-0.2708,-0.272,-0.2756,-0.276,-0.2762,-0.276,-0.2759,-0.2766,-0.2762,-0.2743,-0.2739,-0.2711,-0.2711,-0.2711,-0.2722,-0.2723,-0.2724,0,0,0,0,0,-0.2562,-0.2573,-0.2573,-0.2583,-0.2639,-0.2701,-0.2712,-0.2759,-0.2756,-0.2774,-0.2781,-0.276,-0.2764,-0.2766,-0.276,-0.274,-0.2711,-0.2711,-0.2711,-0.2721,-0.2723,-0.2724,0,0,0,0,0,0,-0.2537,-0.258,-0.2582,-0.2604,-0.2652,-0.2712,-0.2732,-0.2757,-0.2777,-0.277,-0.277,-0.277,-0.2777,-0.2757,-0.2758,-0.2734,-0.2729,-0.2729,-0.2739,-0.274,-0.2741,-0.2725,-0.2737,0,0,0,0,0,-0.2528,-0.2541,-0.2592,-0.261,-0.2623,-0.2669,-0.2699,-0.273,-0.276,-0.277,-0.2777,-0.2771,-0.2772,-0.2757,-0.2765,-0.274,-0.2702,-0.2722,-0.2723,-0.2724,-0.2709,-0.2653,-0.2647,-0.2713,-0.2713,-0.2713,0,0,-0.2526,-0.2552,-0.256,-0.2606,-0.263,-0.2657,-0.2685,-0.2729,-0.2748,-0.2758,-0.2772,-0.2787,-0.2775,-0.2772,-0.2767,-0.2748,-0.2686,-0.2724,-0.2725,-0.2709,-0.2653,-0.2646,-0.264,-0.2713,-0.2713,-0.2713,0,0,-0.2525,-0.2537,-0.2541,-0.2578,-0.2628,-0.2658,-0.2669,-0.2724,-0.2739,-0.2763,-0.2777,-0.2786,-0.2777,-0.2775,-0.2765,-0.2767,-0.2714,-0.2761,-0.2727,-0.2674,-0.2668,-0.2661,-0.2606,-0.2595,-0.2737,-0.2737,-0.2737,0,-0.251,-0.252,-0.2559,-0.2575,-0.26,-0.2651,-0.2662,-0.2691,-0.275,-0.2746,-0.2766,-0.2768,-0.2774,-0.2749,-0.2764,-0.2766,-0.2725,-0.2724,-0.2673,-0.2667,-0.266,-0.2605,-0.2592,-0.2738,-0.2738,-0.2738,-0.2738,0,-0.2511,-0.2523,-0.2529,-0.2551,-0.2591,-0.2612,-0.2659,-0.2683,-0.27,-0.2724,-0.2726,-0.2748,-0.2742,-0.2746,-0.2755,-0.2711,-0.2694,-0.27,-0.2666,-0.2653,-0.2597,-0.2584,-0.2739,-0.2739,-0.2738,-0.2738,0,0,-0.2426,-0.2507,-0.25,-0.2514,-0.2573,-0.2604,-0.2623,-0.2645,-0.2647,-0.2682,-0.2665,-0.2687,-0.2701,-0.2692,-0.2705,-0.2658,-0.2597,-0.2653,-0.265,-0.2591,-0.2465,-0.2438,-0.242,-0.2586,-0.2584,-0.2582,-0.2444,0,-0.2388,-0.2419,-0.2468,-0.2491,-0.2503,-0.2558,-0.2579,-0.2615,-0.2635,-0.2641,-0.2637,-0.2648,-0.2677,-0.2682,-0.264,-0.2625,-0.2561,-0.2633,-0.2492,-0.2487,-0.2458,-0.2404,-0.2376,-0.2249,-0.2431,-0.2429,-0.2427,0,-0.2335,-0.2372,-0.2387,-0.2458,-0.2463,-0.2489,-0.2515,-0.2547,-0.2566,-0.2581,-0.2576,-0.2598,-0.2568,-0.2593,-0.2505,-0.2546,-0.2499,-0.247,-0.2464,-0.2421,-0.2434,-0.2291,-0.2217,-0.2224,-0.2406,-0.2408,-0.2409,0,-0.2238,-0.2298,-0.2309,-0.2333,-0.2425,-0.2429,-0.2468,-0.251,-0.2514,-0.2541,-0.2539,-0.2524,-0.2509,-0.2453,-0.2422,-0.2453,-0.2301,-0.2337,-0.2254,-0.2252,-0.219,-0.2186,-0.2097,-0.2236,-0.2237,-0.2237,-0.2238,0,-0.2162,-0.2176,-0.2268,-0.2276,-0.2282,-0.2373,-0.2367,-0.2413,-0.2445,-0.2439,-0.2499,-0.2481,-0.247,-0.2405,-0.2373,-0.2263,-0.2255,-0.2223,-0.2204,-0.2195,-0.2193,-0.2168,-0.2198,-0.2232,-0.2233,-0.2234,-0.2235,0,-0.2067,-0.2122,-0.2136,-0.2215,-0.2234,-0.2237,-0.2296,-0.2305,-0.2363,-0.2351,-0.2358,-0.2402,-0.2351,-0.2314,-0.2221,-0.2189,-0.207,-0.206,-0.2054,-0.2036,-0.1994,-0.2027,-0.186,-0.18,-0.1948,-0.1946,-0.1945,0,-0.2042,-0.2037,-0.2069,-0.2063,-0.2094,-0.212,-0.2143,-0.223,-0.2242,-0.2299,-0.2279,-0.2263,-0.2239,-0.2105,-0.2064,-0.1968,-0.1967,-0.1874,-0.1936,-0.1958,-0.1979,-0.1978,-0.1941,-0.1856,-0.1854,-0.1853,-0.1851,0,-0.1989,-0.1975,-0.1983,-0.1968,-0.1974,-0.1993,-0.2033,-0.2033,-0.2136,-0.2129,-0.2144,-0.2138,-0.2077,-0.2009,-0.1912,-0.185,-0.1856,-0.1837,-0.1848,-0.1879,-0.1878,-0.1824,-0.1991,-0.1837,-0.1838,-0.1839,-0.184,-0.1841,-0.193,-0.1906,-0.1896,-0.1874,-0.1881,-0.1894,-0.1874,-0.1916,-0.1919,-0.1923,-0.1994,-0.1977,-0.1987,-0.1879,-0.1809,-0.1732,-0.1736,-0.1704,-0.1732,-0.1721,-0.1689,-0.1824,-0.1666,-0.1666,-0.1667,-0.1667,-0.1667,0,-0.1844,-0.1837,-0.1822,-0.1793,-0.1787,-0.1812,-0.1821,-0.1783,-0.1741,-0.1774,-0.1765,-0.1851,-0.1803,-0.18,-0.1754,-0.1672,-0.1613,-0.1614,-0.1621,-0.1579,-0.1682,-0.1708,-0.1564,-0.1564,-0.1564,-0.1564,-0.1564,-0.1564,-0.1796,-0.1751,-0.1749,-0.1721,-0.1713,-0.1658,-0.1642,-0.1564,-0.1544,-0.1507,-0.1556,-0.1668,-0.1712,-0.1864,-0.1778,-0.1681,-0.1614,-0.1553,-0.1529,-0.1661,-0.1673,-0.1684,-0.1714,-0.1574,-0.1574,-0.1384,-0.1383,-0.1382]},{"header":{"parameterUnit":"m.s-1","parameterCategory":2,"la1":30.2991,"la2":30.254,"lo1":-89.0895,"lo2":-89.0444,"dy":0.0017,"dx":0.0017,"nx":28,"ny":28,"refTime":"2023-10-23T09:00:00:Z","depth":"0","parameterNumber":3,"parameterNumberName":"V-component_of_CURRENTS"},"data":[0,0,0,0,0,0,0,0,0,0,0,0,0,0,0,0,0,0,0,0,0,0,0,0,0,0,0,0,0,0,0,0,0,0,0,0,0,0,0,0,0,0,0,0,0,0,0,0,0,0,0,0,0,0,0,0,0,0,0.02,0.0204,0,0.0478,0.0481,0.0484,0.0652,0.0653,0.0654,0.0655,0.0824,0.0828,0.0831,0,0,0,0,0,0,0,0,0,0,0,0,0,-0.0048,-0.0045,0.02,0.0204,0.0207,0.0477,0.0481,0.0485,0.0652,0.0653,0.0655,0.0656,0.0823,0.0827,0.0832,0,0,0,0,0,0,0,0,0,0,0,0,0,0.0125,-0.0045,0.0199,0.0325,0.0339,0.0477,0.0481,0.0485,0.0652,0.0653,0.0655,0.0656,0.0822,0.0827,0.0832,0.0834,0,0,0.0848,0.0851,0,0,0,0,0,0,0,0,0.0115,0.0133,0.0303,0.0317,0.0333,0.0534,0.0456,0.0597,0.0651,0.0531,0.0655,0.0657,0.0717,0.0731,0.0779,0.0842,0.0849,0.0849,0.0852,0.0854,0.0856,0,0,0,0,0,0,0,0.0102,0.0123,0.0308,0.0307,0.0325,0.0415,0.044,0.0484,0.0608,0.0542,0.0555,0.0589,0.0725,0.0773,0.0783,0.0852,0.0849,0.0853,0.0857,0.0859,0.0953,0.0952,0,0,0,0,0,0,0.0064,0.0111,0.0299,0.0316,0.0228,0.0418,0.0445,0.0466,0.0611,0.0636,0.0587,0.0596,0.0763,0.0777,0.079,0.0817,0.0854,0.0859,0.0862,0.0954,0.0953,0.0952,0,0,0,0,0,0,0.0057,0.0077,0.0288,0.0223,0.0256,0.0419,0.0442,0.0471,0.0526,0.0647,0.067,0.0613,0.0765,0.0782,0.0838,0.0824,0.0862,0.0867,0.0954,0.0953,0.0952,0.0861,0,0,0,0,0,0,0.0049,0.0073,0.0073,0.0219,0.0259,0.0348,0.0442,0.0475,0.0545,0.0559,0.0676,0.0694,0.0768,0.0829,0.0843,0.0832,0.0871,0.0955,0.0954,0.0953,0.0864,0.0856,0.085,0,0,0,0,0,0.0038,0.0033,0.007,0.0094,0.0253,0.0347,0.0374,0.0495,0.0544,0.0552,0.0646,0.0691,0.083,0.0833,0.0849,0.084,0.0956,0.0954,0.0953,0.0868,0.0858,0.085,0,0,0,0,0,0,-0.006,0.0055,0.0098,0.0132,0.0219,0.0376,0.0405,0.048,0.0565,0.0578,0.0688,0.0711,0.0759,0.0802,0.0803,0.0862,0.0897,0.0899,0.0827,0.0818,0.0811,0.0804,0.0875,0,0,0,0,0,-0.0089,-0.0071,0.0054,0.008,0.0115,0.0251,0.0306,0.0383,0.0483,0.0525,0.0604,0.0687,0.0764,0.0792,0.0859,0.0881,0.0934,0.0883,0.0876,0.0869,0.0874,0.0949,0.0949,0.0947,0.0947,0.0947,0,0,-0.0113,-0.0053,-0.0036,0.0058,0.0138,0.0192,0.0287,0.0356,0.0407,0.0522,0.0589,0.0664,0.0766,0.0813,0.0834,0.0846,0.0892,0.0867,0.0861,0.087,0.0947,0.0948,0.0948,0.0946,0.0946,0.0946,0,0,-0.0157,-0.011,-0.0109,-0.0046,0.0055,0.0137,0.0145,0.0276,0.0335,0.0402,0.051,0.0572,0.0669,0.075,0.0804,0.0786,0.0857,0.0797,0.0749,0.0821,0.0822,0.0824,0.0865,0.0872,0.0785,0.0785,0.0784,0,-0.0192,-0.0165,-0.0093,-0.0068,-0.001,0.0101,0.0134,0.0205,0.0337,0.0381,0.0401,0.058,0.0645,0.0745,0.0743,0.077,0.0817,0.0776,0.0812,0.0815,0.0818,0.0861,0.0869,0.078,0.078,0.0781,0.0781,0,-0.0217,-0.0195,-0.019,-0.0124,-0.0062,-0.0024,0.0089,0.0134,0.0205,0.0291,0.0383,0.0484,0.0597,0.0613,0.0677,0.0737,0.0764,0.08,0.0833,0.0813,0.0859,0.0869,0.0773,0.0775,0.0776,0.0777,0,0,-0.0278,-0.0224,-0.0218,-0.0195,-0.0087,-0.0035,0.0025,0.0124,0.0187,0.0261,0.0349,0.0448,0.0507,0.0572,0.0652,0.0698,0.0744,0.0747,0.0753,0.0786,0.0888,0.0773,0.0774,0.0794,0.0796,0.0798,0.0901,0,-0.0313,-0.0304,-0.0251,-0.0214,-0.0186,-0.0079,-0.002,0.008,0.0173,0.0269,0.0363,0.0471,0.0493,0.0558,0.0603,0.0743,0.0772,0.0712,0.0906,0.0912,0.0811,0.0782,0.0791,0.0873,0.0912,0.0914,0.0915,0,-0.0326,-0.0324,-0.0311,-0.0243,-0.0219,-0.0182,-0.0051,0.002,0.0169,0.0242,0.0345,0.0448,0.0555,0.0568,0.0738,0.0705,0.0775,0.0849,0.0856,0.0792,0.0815,0.0906,0.0891,0.1025,0.0931,0.093,0.0929,0,-0.0366,-0.0344,-0.0345,-0.0318,-0.0233,-0.0205,-0.0144,0.0004,0.0083,0.0241,0.0323,0.0456,0.0554,0.0658,0.0776,0.0784,0.0943,0.0984,0.0934,0.0928,0.0994,0.0988,0.1132,0.1071,0.107,0.107,0.107,0,-0.0385,-0.037,-0.0378,-0.0367,-0.0349,-0.0257,-0.0185,-0.0095,0.0052,0.0143,0.0303,0.0398,0.0584,0.0698,0.0786,0.0869,0.0948,0.0918,0.0945,0.0954,0.0944,0.111,0.1171,0.1074,0.1073,0.1072,0.1072,0,-0.0361,-0.0383,-0.0383,-0.0367,-0.0362,-0.0334,-0.023,-0.0161,-0.0018,0.0114,0.0167,0.0382,0.0513,0.0654,0.0837,0.0878,0.1028,0.0973,0.094,0.0957,0.1005,0.1058,0.1197,0.1247,0.0959,0.0957,0.0955,0,-0.0321,-0.0331,-0.0388,-0.0411,-0.0405,-0.0366,-0.0323,-0.0205,-0.0128,0.0086,0.0141,0.0313,0.0395,0.0599,0.0734,0.0849,0.0957,0.0906,0.09,0.0988,0.1074,0.1118,0.1155,0.0969,0.0968,0.0966,0.0965,0,-0.023,-0.0283,-0.0305,-0.0388,-0.0401,-0.0395,-0.0344,-0.031,-0.0159,-0.0075,0.0036,0.011,0.0329,0.0478,0.0629,0.0701,0.0982,0.0874,0.1029,0.1117,0.1124,0.1191,0.0901,0.0953,0.0954,0.0955,0.0956,0.0956,-0.0158,-0.0178,-0.0262,-0.033,-0.0374,-0.0418,-0.042,-0.0383,-0.0333,-0.0229,-0.0127,-0.0028,0.0291,0.0506,0.0614,0.0877,0.0873,0.0961,0.1029,0.1072,0.1081,0.0699,0.0724,0.0724,0.0724,0.0724,0.0724,0,-0.0084,-0.013,-0.0182,-0.0297,-0.0358,-0.0399,-0.0417,-0.043,-0.0444,-0.0376,-0.0327,-0.003,0.0248,0.0569,0.0952,0.1077,0.1161,0.1146,0.13,0.1339,0.1084,0.1042,0.106,0.106,0.106,0.106,0.106,0.106,-0.0049,-0.0091,-0.0144,-0.0254,-0.0335,-0.0429,-0.0471,-0.0525,-0.0516,-0.0459,-0.0331,-0.0214,0.028,0.0998,0.138,0.1393,0.1568,0.1503,0.1589,0.1507,0.1499,0.1491,0.1469,0.1577,0.1577,0.1859,0.1862,0.1864]}],[{"header":{"parameterUnit":"m.s-1","parameterCategory":2,"la1":30.2991,"la2":30.254,"lo1":-89.0895,"lo2":-89.0444,"dy":0.0017,"dx":0.0017,"nx":28,"ny":28,"refTime":"2023-10-23T09:00:00:Z","depth":"2","parameterNumber":2,"parameterNumberName":"U-component_of_CURRENTS"},"data":[0,0,0,0,0,0,0,0,0,0,0,0,0,0,0,0,0,0,0,0,0,0,0,0,0,0,0,0,0,0,0,0,0,0,0,0,0,0,0,0,0,0,0,0,0,0,0,0,0,0,0,0,0,0,0,0,0,0,-0.1939,-0.1938,0,-0.197,-0.1971,-0.1972,-0.2006,-0.2005,-0.2005,-0.2004,-0.2012,-0.2013,-0.2013,0,0,0,0,0,0,0,0,0,0,0,0,0,-0.1913,-0.1915,-0.1939,-0.1938,-0.1937,-0.1969,-0.1971,-0.1973,-0.2006,-0.2005,-0.2004,-0.2004,-0.2012,-0.2012,-0.2013,0,0,0,0,0,0,0,0,0,0,0,0,0,-0.1944,-0.1915,-0.1939,-0.1949,-0.1949,-0.1969,-0.1971,-0.1973,-0.2006,-0.2005,-0.2004,-0.2003,-0.2011,-0.2012,-0.2014,-0.204,0,0,-0.2017,-0.2018,0,0,0,0,0,0,0,0,-0.1942,-0.1946,-0.1948,-0.1948,-0.1948,-0.1972,-0.1964,-0.199,-0.2006,-0.1997,-0.2004,-0.2003,-0.1989,-0.1992,-0.2018,-0.204,-0.204,-0.2017,-0.2018,-0.2018,-0.2019,0,0,0,0,0,0,0,-0.194,-0.1945,-0.1963,-0.1947,-0.1947,-0.1952,-0.1957,-0.197,-0.2007,-0.1998,-0.1998,-0.1982,-0.1991,-0.2017,-0.2018,-0.2041,-0.2017,-0.2018,-0.2019,-0.2019,-0.2091,-0.2092,0,0,0,0,0,0,-0.1913,-0.1943,-0.1962,-0.1963,-0.1929,-0.1953,-0.1959,-0.1976,-0.2008,-0.2008,-0.1983,-0.1983,-0.2015,-0.2016,-0.2018,-0.2107,-0.2018,-0.202,-0.202,-0.209,-0.2092,-0.2093,0,0,0,0,0,0,-0.1913,-0.1916,-0.1961,-0.1942,-0.1946,-0.1953,-0.1972,-0.1976,-0.2005,-0.1994,-0.1996,-0.2005,-0.2014,-0.2016,-0.2058,-0.2104,-0.202,-0.2021,-0.2089,-0.2091,-0.2092,-0.2247,0,0,0,0,0,0,-0.1913,-0.1917,-0.193,-0.1941,-0.1946,-0.1979,-0.1972,-0.1977,-0.199,-0.1992,-0.2014,-0.2013,-0.2014,-0.2057,-0.206,-0.2105,-0.2022,-0.2087,-0.209,-0.2092,-0.2241,-0.2254,-0.2266,0,0,0,0,0,-0.1913,-0.1932,-0.1932,-0.1933,-0.1962,-0.1978,-0.1984,-0.1992,-0.1992,-0.2014,-0.2042,-0.2013,-0.2071,-0.206,-0.2063,-0.2109,-0.2086,-0.2089,-0.2091,-0.2235,-0.2252,-0.2265,0,0,0,0,0,0,-0.1914,-0.1936,-0.1936,-0.1958,-0.1965,-0.1979,-0.2002,-0.1998,-0.2041,-0.206,-0.2046,-0.205,-0.2103,-0.2075,-0.2062,-0.2129,-0.2066,-0.207,-0.2175,-0.219,-0.2202,-0.2145,-0.2023,0,0,0,0,0,-0.192,-0.1951,-0.1956,-0.197,-0.1988,-0.1998,-0.2007,-0.202,-0.2044,-0.2064,-0.207,-0.2084,-0.2117,-0.2128,-0.2146,-0.2189,-0.21,-0.2209,-0.2222,-0.2233,-0.2185,-0.2117,-0.2119,-0.2102,-0.2102,-0.2102,0,0,-0.1918,-0.1932,-0.1947,-0.1973,-0.1995,-0.2021,-0.2008,-0.2044,-0.2064,-0.2057,-0.2107,-0.2136,-0.2138,-0.2201,-0.2218,-0.2184,-0.2197,-0.2237,-0.2247,-0.2191,-0.212,-0.2121,-0.2123,-0.2104,-0.2103,-0.2103,0,0,-0.1919,-0.1958,-0.1982,-0.2008,-0.2037,-0.2053,-0.206,-0.2093,-0.2118,-0.2165,-0.2177,-0.2224,-0.2253,-0.2277,-0.2288,-0.2367,-0.2271,-0.2375,-0.2396,-0.2335,-0.2334,-0.2333,-0.2247,-0.2237,-0.2377,-0.2378,-0.2378,0,-0.1922,-0.1945,-0.1985,-0.2017,-0.2033,-0.2065,-0.2089,-0.2129,-0.2163,-0.2174,-0.219,-0.225,-0.2282,-0.2333,-0.2382,-0.2397,-0.2324,-0.2355,-0.235,-0.2347,-0.2343,-0.2255,-0.2241,-0.2386,-0.2385,-0.2384,-0.2383,0,-0.1934,-0.1964,-0.1989,-0.2043,-0.2069,-0.2109,-0.2152,-0.2186,-0.2217,-0.2235,-0.2293,-0.235,-0.2362,-0.2412,-0.2434,-0.2443,-0.2389,-0.2384,-0.2314,-0.2354,-0.2259,-0.2242,-0.2397,-0.2394,-0.2392,-0.239,0,0,-0.1925,-0.1986,-0.2,-0.2016,-0.2095,-0.2114,-0.2169,-0.2203,-0.2216,-0.2284,-0.2278,-0.2401,-0.2416,-0.2425,-0.2469,-0.2443,-0.2412,-0.2409,-0.2402,-0.2325,-0.2242,-0.2245,-0.2226,-0.2407,-0.2405,-0.2403,-0.2195,0,-0.1925,-0.1967,-0.2004,-0.2046,-0.2073,-0.213,-0.2162,-0.2206,-0.2246,-0.2258,-0.2322,-0.2355,-0.2427,-0.2452,-0.2448,-0.2414,-0.2369,-0.2465,-0.2208,-0.2199,-0.22,-0.2208,-0.2115,-0.1925,-0.2178,-0.2175,-0.2173,0,-0.1918,-0.195,-0.1982,-0.2031,-0.2053,-0.2085,-0.2132,-0.2166,-0.2207,-0.2237,-0.2278,-0.2305,-0.2329,-0.2364,-0.2293,-0.2347,-0.229,-0.2255,-0.2246,-0.2164,-0.2171,-0.1919,-0.1883,-0.2143,-0.2146,-0.2148,-0.215,0,-0.186,-0.193,-0.1945,-0.1974,-0.2041,-0.2062,-0.2102,-0.2154,-0.2158,-0.2206,-0.22,-0.2236,-0.2225,-0.218,-0.217,-0.2204,-0.2039,-0.207,-0.2002,-0.2,-0.182,-0.1808,-0.1956,-0.1957,-0.1957,-0.1958,-0.1958,0,-0.183,-0.1857,-0.1923,-0.1938,-0.1952,-0.2028,-0.2036,-0.2082,-0.2107,-0.2094,-0.2181,-0.2149,-0.2171,-0.2111,-0.2097,-0.2003,-0.1976,-0.1969,-0.1942,-0.1878,-0.1874,-0.1978,-0.1983,-0.195,-0.1952,-0.1953,-0.1954,0,-0.1771,-0.1811,-0.1825,-0.1896,-0.1913,-0.1927,-0.1971,-0.1962,-0.203,-0.2,-0.2003,-0.2024,-0.1977,-0.199,-0.1891,-0.1889,-0.1813,-0.1777,-0.1703,-0.1674,-0.182,-0.1835,-0.1645,-0.1643,-0.1642,-0.1641,-0.164,0,-0.1742,-0.1722,-0.1775,-0.1758,-0.1794,-0.1825,-0.1818,-0.1896,-0.1882,-0.1913,-0.1865,-0.1842,-0.183,-0.1724,-0.1716,-0.1663,-0.1719,-0.1515,-0.1586,-0.1792,-0.1785,-0.1803,-0.182,-0.1398,-0.1395,-0.1393,-0.1391,0,-0.1653,-0.1664,-0.1693,-0.1667,-0.1655,-0.1637,-0.1655,-0.1633,-0.1707,-0.1714,-0.1697,-0.1696,-0.1655,-0.1585,-0.1553,-0.1502,-0.1539,-0.1466,-0.164,-0.1536,-0.1554,-0.1551,-0.1575,-0.1369,-0.1372,-0.1373,-0.1374,-0.1375,-0.1563,-0.1562,-0.1573,-0.154,-0.1537,-0.148,-0.1443,-0.1469,-0.1454,-0.148,-0.1519,-0.1526,-0.1516,-0.1451,-0.1371,-0.1312,-0.1412,-0.1348,-0.1355,-0.1365,-0.1419,-0.1439,-0.1238,-0.124,-0.1241,-0.1242,-0.1243,0,-0.1373,-0.1413,-0.1422,-0.1384,-0.1317,-0.1365,-0.134,-0.1294,-0.1282,-0.133,-0.1368,-0.1265,-0.1263,-0.1255,-0.1166,-0.114,-0.1119,-0.1064,-0.1058,-0.108,-0.1099,-0.1141,-0.0884,-0.0883,-0.0882,-0.0881,0,0,-0.1247,-0.1215,-0.1254,-0.1149,-0.1141,-0.1054,-0.1021,-0.1013,-0.1048,-0.1036,-0.107,-0.1241,-0.1261,-0.1104,-0.1047,-0.0961,-0.1,-0.09,-0.1192,-0.1208,-0.1226,-0.1269,-0.136,0,0,0,0,0]},{"header":{"parameterUnit":"m.s-1","parameterCategory":2,"la1":30.2991,"la2":30.254,"lo1":-89.0895,"lo2":-89.0444,"dy":0.0017,"dx":0.0017,"nx":28,"ny":28,"refTime":"2023-10-23T09:00:00:Z","depth":"2","parameterNumber":3,"parameterNumberName":"V-component_of_CURRENTS"},"data":[0,0,0,0,0,0,0,0,0,0,0,0,0,0,0,0,0,0,0,0,0,0,0,0,0,0,0,0,0,0,0,0,0,0,0,0,0,0,0,0,0,0,0,0,0,0,0,0,0,0,0,0,0,0,0,0,0,0,-0.0106,-0.0106,0,-0.0045,-0.0044,-0.0044,-0.0018,-0.0018,-0.0018,-0.0018,0.0184,0.019,0.0195,0,0,0,0,0,0,0,0,0,0,0,0,0,-0.0208,-0.0206,-0.0106,-0.0106,-0.0105,-0.0045,-0.0044,-0.0043,-0.0017,-0.0018,-0.0018,-0.0018,0.0183,0.0189,0.0196,0,0,0,0,0,0,0,0,0,0,0,0,0,-0.0156,-0.0206,-0.0106,-0.0086,-0.0083,-0.0045,-0.0044,-0.0043,-0.0017,-0.0018,-0.0018,-0.0018,0.018,0.0188,0.0197,0.0255,0,0,0.0222,0.0226,0,0,0,0,0,0,0,0,-0.0159,-0.0152,-0.0089,-0.0087,-0.0084,-0.004,-0.0006,0.0063,-0.0017,-0.0041,-0.0018,-0.0019,0.0122,0.0135,0.0147,0.0265,0.0273,0.0223,0.0228,0.0232,0.0234,0,0,0,0,0,0,0,-0.0163,-0.0155,-0.0081,-0.0089,-0.0086,-0.0082,-0.0075,0.0007,0.0045,-0.0039,-0.0037,-0.0032,0.0124,0.0139,0.0152,0.0276,0.0223,0.023,0.0236,0.0239,0.0502,0.0504,0,0,0,0,0,0,-0.0171,-0.0158,-0.0083,-0.0079,-0.0125,-0.008,-0.0072,-0.0053,0.0041,0.0054,-0.0032,-0.0031,0.0124,0.0142,0.016,0.0286,0.0232,0.024,0.0245,0.05,0.0502,0.0504,0,0,0,0,0,0,-0.0174,-0.0165,-0.0085,-0.0119,-0.0109,-0.0078,-0.0057,-0.0052,-0.003,0.0045,0.006,-0.0016,0.0125,0.0148,0.0269,0.0292,0.0243,0.0251,0.0498,0.0501,0.0503,0.0507,0,0,0,0,0,0,-0.0176,-0.0165,-0.0161,-0.0119,-0.0107,-0.0079,-0.0057,-0.005,-0.0028,-0.0026,0.0064,0.0081,0.0126,0.0257,0.0278,0.0303,0.0258,0.0495,0.0499,0.0502,0.0505,0.051,0.0514,0,0,0,0,0,-0.018,-0.0187,-0.0161,-0.0153,-0.01,-0.008,-0.0074,-0.0053,-0.0027,-0.0031,0.0071,0.0079,0.0293,0.0267,0.029,0.0318,0.0493,0.0498,0.0502,0.0502,0.0509,0.0514,0,0,0,0,0,0,-0.0233,-0.0183,-0.0155,-0.0145,-0.0117,-0.0077,-0.0071,-0.0046,0.0026,0.0054,0.0127,0.0152,0.0265,0.0297,0.0265,0.0404,0.0386,0.0395,0.0378,0.0385,0.0389,0.0336,0.0265,0,0,0,0,0,-0.0238,-0.0229,-0.0178,-0.0172,-0.0147,-0.01,-0.0087,-0.0063,0.0005,0.0034,0.0095,0.0188,0.0299,0.0346,0.0429,0.0515,0.0519,0.0542,0.0547,0.0551,0.0525,0.0583,0.059,0.0519,0.0519,0.0519,0,0,-0.0255,-0.023,-0.0222,-0.0183,-0.0145,-0.0119,-0.0093,-0.0063,-0.0036,0.0053,0.0117,0.0216,0.0331,0.0431,0.048,0.0461,0.0574,0.0557,0.0559,0.053,0.0589,0.0595,0.0601,0.0522,0.0521,0.0521,0,0,-0.0292,-0.0251,-0.025,-0.0218,-0.0168,-0.0137,-0.0126,-0.0072,-0.0039,0.0046,0.0136,0.0245,0.0371,0.0456,0.0525,0.0607,0.0608,0.0633,0.0608,0.0666,0.0672,0.0676,0.0679,0.0684,0.0623,0.0623,0.0623,0,-0.031,-0.0297,-0.0252,-0.0233,-0.0206,-0.0142,-0.0121,-0.0076,0.0001,0.0043,0.0062,0.0289,0.0379,0.0535,0.0563,0.0614,0.0629,0.0578,0.0669,0.0674,0.0679,0.0681,0.0686,0.0624,0.0623,0.0623,0.0623,0,-0.033,-0.0317,-0.0309,-0.0258,-0.0227,-0.0201,-0.0123,-0.009,-0.0033,0.0017,0.016,0.0298,0.0419,0.0478,0.0554,0.0651,0.0644,0.0677,0.0644,0.0686,0.0686,0.0691,0.0625,0.0624,0.0624,0.0624,0,0,-0.0364,-0.0332,-0.0326,-0.0309,-0.023,-0.0207,-0.0147,-0.008,-0.0033,0.0057,0.0126,0.0326,0.0386,0.0467,0.0579,0.0633,0.069,0.0661,0.0663,0.0642,0.0781,0.0709,0.0708,0.0747,0.0748,0.0749,0.0763,0,-0.0385,-0.0385,-0.0351,-0.0329,-0.0307,-0.0228,-0.0182,-0.0105,-0.0029,0.0044,0.0198,0.0316,0.0391,0.0473,0.0543,0.068,0.0707,0.068,0.0761,0.0761,0.0677,0.0713,0.0687,0.0692,0.0768,0.0769,0.0769,0,-0.0395,-0.0401,-0.0396,-0.0357,-0.0333,-0.0312,-0.0217,-0.0165,-0.0038,0.0031,0.0158,0.0265,0.0413,0.0451,0.0636,0.062,0.0678,0.075,0.0753,0.068,0.07,0.0668,0.0698,0.0778,0.0777,0.0777,0.0776,0,-0.0432,-0.042,-0.0427,-0.0407,-0.0353,-0.0331,-0.0289,-0.0175,-0.0114,0.002,0.0083,0.0253,0.0359,0.0472,0.0606,0.0634,0.0755,0.0816,0.0788,0.0782,0.0767,0.0757,0.0883,0.0883,0.0883,0.0883,0.0883,0,-0.0453,-0.0448,-0.0454,-0.0449,-0.0442,-0.0373,-0.0321,-0.0258,-0.0144,-0.0079,0.0075,0.0143,0.0369,0.0467,0.0575,0.068,0.0726,0.0767,0.0787,0.0766,0.0757,0.084,0.0835,0.0884,0.0884,0.0884,0.0883,0,-0.0454,-0.0469,-0.0477,-0.0464,-0.0461,-0.0442,-0.0363,-0.032,-0.0205,-0.0118,-0.0077,0.0081,0.0215,0.0388,0.0562,0.0636,0.074,0.0743,0.0667,0.0677,0.0735,0.0731,0.075,0.0747,0.0745,0.0744,0.0742,0,-0.045,-0.0482,-0.049,-0.051,-0.0506,-0.0475,-0.0452,-0.036,-0.0316,-0.018,-0.0159,-0.0015,0.0074,0.0287,0.0453,0.0611,0.0652,0.0632,0.0686,0.0707,0.0725,0.0723,0.0721,0.0672,0.067,0.0669,0.0668,0,-0.0468,-0.0481,-0.0475,-0.0518,-0.0535,-0.0537,-0.0511,-0.0494,-0.0388,-0.0318,-0.0263,-0.0193,0.0024,0.0192,0.0383,0.0466,0.062,0.0603,0.0676,0.0692,0.0631,0.0649,0.0651,0.0654,0.0656,0.0657,0.0657,0.0658,-0.0488,-0.0483,-0.0499,-0.0536,-0.0554,-0.06,-0.0609,-0.0577,-0.0543,-0.0452,-0.0396,-0.0271,-0.0069,0.0203,0.0346,0.0497,0.0522,0.0575,0.0582,0.059,0.0561,0.0498,0.0489,0.0489,0.0489,0.049,0.049,0,-0.0539,-0.0525,-0.0532,-0.0587,-0.0632,-0.0627,-0.0644,-0.0646,-0.0636,-0.0554,-0.0477,-0.0285,-0.0085,0.0132,0.0362,0.0487,0.053,0.0499,0.0554,0.0564,0.0574,0.0548,0.047,0.0471,0.0472,0.0472,0,0,-0.0587,-0.0599,-0.0586,-0.0671,-0.0699,-0.076,-0.0792,-0.0767,-0.0708,-0.0634,-0.0536,-0.038,-0.0112,0.0051,0.0237,0.036,0.042,0.0359,0.0355,0.0406,0.0414,0.0591,0.0558,0,0,0,0,0]}],[{"header":{"parameterUnit":"m.s-1","parameterCategory":2,"la1":30.2991,"la2":30.254,"lo1":-89.0895,"lo2":-89.0444,"dy":0.0017,"dx":0.0017,"nx":28,"ny":28,"refTime":"2023-10-23T09:00:00:Z","depth":"4","parameterNumber":2,"parameterNumberName":"U-component_of_CURRENTS"},"data":[0,0,0,0,0,0,0,0,0,0,0,0,0,0,0,0,0,0,0,0,0,0,0,0,0,0,0,0,0,0,0,0,0,0,0,0,0,0,0,0,0,0,0,0,0,0,0,0,0,0,0,0,0,0,0,0,0,0,-0.0875,-0.0875,0,-0.0849,-0.0848,-0.0848,-0.0809,-0.0809,-0.0809,-0.0809,-0.0819,-0.082,-0.082,0,0,0,0,0,0,0,0,0,0,0,0,0,-0.0811,-0.0812,-0.0875,-0.0875,-0.0876,-0.0849,-0.0848,-0.0847,-0.0809,-0.0809,-0.0809,-0.0809,-0.0819,-0.082,-0.082,0,0,0,0,0,0,0,0,0,0,0,0,0,-0.0811,-0.0813,-0.0875,-0.0858,-0.0857,-0.0849,-0.0848,-0.0847,-0.0809,-0.0809,-0.0809,-0.0809,-0.0819,-0.082,-0.082,-0.0826,0,0,-0.0822,-0.0822,0,0,0,0,0,0,0,0,-0.0812,-0.0813,-0.086,-0.0859,-0.0858,-0.0838,-0.083,-0.0844,-0.0809,-0.082,-0.0809,-0.0809,-0.0833,-0.0833,-0.0818,-0.0826,-0.0827,-0.0822,-0.0822,-0.0822,-0.0823,0,0,0,0,0,0,0,-0.0812,-0.0814,-0.0858,-0.0861,-0.0859,-0.0825,-0.0825,-0.0831,-0.0823,-0.0819,-0.0818,-0.0826,-0.0832,-0.0818,-0.0818,-0.0827,-0.0822,-0.0822,-0.0823,-0.0823,-0.0869,-0.087,0,0,0,0,0,0,-0.0833,-0.0814,-0.0859,-0.0858,-0.0841,-0.0827,-0.0826,-0.0839,-0.0823,-0.0821,-0.0826,-0.0824,-0.0817,-0.0818,-0.0819,-0.0848,-0.0822,-0.0823,-0.0823,-0.0868,-0.0869,-0.087,0,0,0,0,0,0,-0.0831,-0.0837,-0.086,-0.084,-0.0841,-0.0829,-0.0843,-0.0839,-0.0848,-0.0828,-0.0826,-0.0843,-0.0817,-0.0818,-0.0825,-0.0848,-0.0823,-0.0824,-0.0867,-0.0868,-0.087,-0.0893,0,0,0,0,0,0,-0.083,-0.0837,-0.085,-0.0842,-0.0844,-0.0876,-0.0844,-0.0839,-0.0854,-0.0852,-0.0842,-0.0841,-0.0817,-0.0824,-0.0826,-0.0848,-0.0824,-0.0866,-0.0868,-0.0869,-0.0891,-0.0895,-0.0898,0,0,0,0,0,-0.0827,-0.0841,-0.085,-0.0856,-0.0863,-0.0878,-0.0875,-0.086,-0.0856,-0.0866,-0.0845,-0.0843,-0.0837,-0.0825,-0.0826,-0.085,-0.0865,-0.0867,-0.0869,-0.0889,-0.0894,-0.0898,0,0,0,0,0,0,-0.0823,-0.0839,-0.0849,-0.0869,-0.0887,-0.0875,-0.0878,-0.0881,-0.0871,-0.0872,-0.0847,-0.0845,-0.086,-0.0856,-0.0844,-0.0869,-0.0854,-0.0857,-0.0869,-0.0874,-0.0877,-0.0884,-0.0824,0,0,0,0,0,-0.0833,-0.0842,-0.0865,-0.0883,-0.0896,-0.0896,-0.0901,-0.0904,-0.0898,-0.0894,-0.0886,-0.0877,-0.0867,-0.0871,-0.0865,-0.0882,-0.0878,-0.0901,-0.0904,-0.0907,-0.0915,-0.0919,-0.0923,-0.0877,-0.0877,-0.0877,0,0,-0.0834,-0.0847,-0.0851,-0.0882,-0.0888,-0.0907,-0.0897,-0.092,-0.0932,-0.0899,-0.0906,-0.0894,-0.0874,-0.0877,-0.0887,-0.088,-0.0919,-0.091,-0.0912,-0.0918,-0.0921,-0.0925,-0.0929,-0.0878,-0.0878,-0.0878,0,0,-0.0833,-0.086,-0.0865,-0.0892,-0.0924,-0.0927,-0.0948,-0.0961,-0.0963,-0.0981,-0.0947,-0.0951,-0.095,-0.0927,-0.0917,-0.0947,-0.0937,-0.0952,-0.0977,-0.098,-0.0984,-0.0987,-0.0987,-0.0989,-0.0955,-0.0955,-0.0955,0,-0.0841,-0.0853,-0.0872,-0.0895,-0.0914,-0.0944,-0.0965,-0.0975,-0.0988,-0.0992,-0.0996,-0.0975,-0.0974,-0.0952,-0.0958,-0.0957,-0.095,-0.0957,-0.0984,-0.0987,-0.099,-0.0989,-0.0992,-0.0956,-0.0956,-0.0956,-0.0956,0,-0.0846,-0.0867,-0.0878,-0.0912,-0.0935,-0.0965,-0.0995,-0.1026,-0.1043,-0.1044,-0.105,-0.103,-0.1016,-0.1021,-0.1,-0.1011,-0.0996,-0.0985,-0.097,-0.0995,-0.0993,-0.0996,-0.0958,-0.0958,-0.0957,-0.0957,0,0,-0.0844,-0.0873,-0.0882,-0.0886,-0.0953,-0.0961,-0.1011,-0.1041,-0.1047,-0.1079,-0.1075,-0.1076,-0.1066,-0.1055,-0.1027,-0.1036,-0.1058,-0.1023,-0.1023,-0.1018,-0.1059,-0.1015,-0.1014,-0.1043,-0.1044,-0.1045,-0.1048,0,-0.0848,-0.0864,-0.0892,-0.0912,-0.0921,-0.098,-0.1006,-0.1043,-0.1066,-0.1074,-0.1084,-0.1067,-0.1074,-0.1057,-0.1072,-0.1049,-0.1066,-0.1058,-0.1039,-0.1039,-0.0993,-0.1016,-0.1047,-0.105,-0.1051,-0.1051,-0.1051,0,-0.0852,-0.0854,-0.0873,-0.0885,-0.0898,-0.0923,-0.0965,-0.0995,-0.1037,-0.1051,-0.1065,-0.1061,-0.1071,-0.1076,-0.1083,-0.1071,-0.108,-0.1075,-0.1075,-0.1029,-0.1,-0.102,-0.1056,-0.1055,-0.1055,-0.1055,-0.1055,0,-0.0811,-0.084,-0.0841,-0.086,-0.0893,-0.0916,-0.0941,-0.099,-0.0998,-0.1033,-0.1036,-0.1048,-0.1044,-0.1065,-0.1079,-0.108,-0.1083,-0.1081,-0.1053,-0.1049,-0.1076,-0.1072,-0.1107,-0.1107,-0.1107,-0.1107,-0.1107,0,-0.0797,-0.0793,-0.0819,-0.0822,-0.0809,-0.0868,-0.0867,-0.0905,-0.0948,-0.0955,-0.1006,-0.1002,-0.1044,-0.1054,-0.1075,-0.1066,-0.1086,-0.1064,-0.105,-0.1086,-0.1083,-0.1077,-0.1074,-0.1107,-0.1107,-0.1107,-0.1107,0,-0.0733,-0.077,-0.0756,-0.0784,-0.0787,-0.0781,-0.0809,-0.0817,-0.0872,-0.089,-0.0906,-0.0963,-0.0997,-0.1027,-0.1053,-0.1044,-0.1048,-0.1044,-0.1078,-0.1065,-0.1017,-0.1014,-0.1018,-0.1017,-0.1015,-0.1014,-0.1014,0,-0.0681,-0.0679,-0.0699,-0.0697,-0.0707,-0.0706,-0.0716,-0.0768,-0.0787,-0.0864,-0.0871,-0.0923,-0.0963,-0.0957,-0.1,-0.1028,-0.1031,-0.1016,-0.1032,-0.1022,-0.1009,-0.1009,-0.1008,-0.1012,-0.1011,-0.1011,-0.1011,0,-0.0575,-0.0612,-0.0602,-0.0607,-0.0614,-0.0604,-0.063,-0.0626,-0.072,-0.0762,-0.0828,-0.0871,-0.0905,-0.0943,-0.096,-0.0983,-0.1013,-0.1003,-0.1007,-0.1022,-0.1015,-0.1002,-0.1003,-0.1006,-0.1007,-0.1007,-0.1008,0,-0.0494,-0.0472,-0.0507,-0.0495,-0.0506,-0.0525,-0.0537,-0.0586,-0.0613,-0.0732,-0.0749,-0.0835,-0.0899,-0.0919,-0.0937,-0.0952,-0.0962,-0.094,-0.0947,-0.0952,-0.0931,-0.0912,-0.0865,0,0,0,0,0,-0.0413,-0.0412,-0.0397,-0.0405,-0.0422,-0.0444,-0.0496,-0.0535,-0.0614,-0.0654,-0.0711,-0.0764,-0.0828,-0.0858,-0.0867,-0.0901,-0.0946,-0.0906,-0.0919,-0.0983,-0.0988,-0.097,0,0,0,0,0,0,-0.038,-0.0372,-0.0372,-0.0339,-0.0336,-0.0361,-0.0401,-0.0469,-0.0499,-0.0594,-0.0631,-0.0713,-0.0773,-0.0812,-0.0846,-0.0858,-0.0854,-0.0961,-0.096,-0.098,-0.0985,-0.0989,-0.0972,0,0,0,0,0]},{"header":{"parameterUnit":"m.s-1","parameterCategory":2,"la1":30.2991,"la2":30.254,"lo1":-89.0895,"lo2":-89.0444,"dy":0.0017,"dx":0.0017,"nx":28,"ny":28,"refTime":"2023-10-23T09:00:00:Z","depth":"4","parameterNumber":3,"parameterNumberName":"V-component_of_CURRENTS"},"data":[0,0,0,0,0,0,0,0,0,0,0,0,0,0,0,0,0,0,0,0,0,0,0,0,0,0,0,0,0,0,0,0,0,0,0,0,0,0,0,0,0,0,0,0,0,0,0,0,0,0,0,0,0,0,0,0,0,0,-0.0352,-0.0353,0,-0.0465,-0.0466,-0.0468,-0.0537,-0.0537,-0.0537,-0.0537,-0.053,-0.053,-0.053,0,0,0,0,0,0,0,0,0,0,0,0,0,-0.0305,-0.0305,-0.0352,-0.0353,-0.0355,-0.0465,-0.0466,-0.0468,-0.0537,-0.0537,-0.0537,-0.0538,-0.053,-0.053,-0.053,0,0,0,0,0,0,0,0,0,0,0,0,0,-0.0364,-0.0305,-0.0352,-0.04,-0.0406,-0.0464,-0.0466,-0.0469,-0.0537,-0.0537,-0.0537,-0.0538,-0.0531,-0.053,-0.053,-0.0522,0,0,-0.0528,-0.0528,0,0,0,0,0,0,0,0,-0.036,-0.0366,-0.0392,-0.0397,-0.0403,-0.0485,-0.0447,-0.048,-0.0537,-0.049,-0.0537,-0.0538,-0.0502,-0.0504,-0.053,-0.0522,-0.0522,-0.0528,-0.0528,-0.0528,-0.0527,0,0,0,0,0,0,0,-0.0356,-0.0362,-0.0399,-0.0393,-0.04,-0.0453,-0.0461,-0.0455,-0.0493,-0.0494,-0.0499,-0.0507,-0.0505,-0.0531,-0.053,-0.0522,-0.0528,-0.0528,-0.0527,-0.0527,-0.0531,-0.0531,0,0,0,0,0,0,-0.0331,-0.0357,-0.0396,-0.0402,-0.0379,-0.0453,-0.0462,-0.0461,-0.0496,-0.0502,-0.0507,-0.051,-0.0531,-0.053,-0.053,-0.0554,-0.0528,-0.0527,-0.0527,-0.0531,-0.0531,-0.0531,0,0,0,0,0,0,-0.033,-0.0333,-0.0391,-0.0382,-0.0392,-0.0453,-0.0451,-0.0463,-0.049,-0.0507,-0.0511,-0.0522,-0.0531,-0.053,-0.0543,-0.0553,-0.0527,-0.0526,-0.053,-0.0531,-0.0531,-0.0582,0,0,0,0,0,0,-0.0328,-0.0332,-0.0339,-0.0379,-0.0392,-0.0427,-0.0451,-0.0465,-0.0493,-0.0499,-0.052,-0.0521,-0.0531,-0.0544,-0.0543,-0.0552,-0.0526,-0.053,-0.053,-0.0531,-0.058,-0.0584,-0.0588,0,0,0,0,0,-0.0325,-0.034,-0.0338,-0.0344,-0.0393,-0.0427,-0.0439,-0.0485,-0.0494,-0.051,-0.0533,-0.052,-0.0547,-0.0545,-0.0543,-0.0552,-0.0529,-0.053,-0.0531,-0.0578,-0.0584,-0.0588,0,0,0,0,0,0,-0.033,-0.0349,-0.0348,-0.0368,-0.039,-0.0438,-0.0461,-0.0481,-0.0515,-0.0516,-0.053,-0.0532,-0.0549,-0.0537,-0.0534,-0.0553,-0.0533,-0.0534,-0.0569,-0.0574,-0.0578,-0.0583,-0.0526,0,0,0,0,0,-0.0327,-0.034,-0.0358,-0.0374,-0.0377,-0.0412,-0.0436,-0.0458,-0.0487,-0.0504,-0.0522,-0.0534,-0.0551,-0.0552,-0.0563,-0.0568,-0.0545,-0.057,-0.0574,-0.0577,-0.058,-0.0572,-0.0576,-0.0534,-0.0534,-0.0534,0,0,-0.0335,-0.0346,-0.0355,-0.0376,-0.0393,-0.0415,-0.0428,-0.0454,-0.0482,-0.0492,-0.0534,-0.0548,-0.0557,-0.0582,-0.0585,-0.0572,-0.0572,-0.0579,-0.0582,-0.0582,-0.0573,-0.0577,-0.0581,-0.0535,-0.0535,-0.0535,0,0,-0.0354,-0.0355,-0.0368,-0.0377,-0.0395,-0.0423,-0.0423,-0.0459,-0.0482,-0.0513,-0.0537,-0.0563,-0.0573,-0.0604,-0.0613,-0.0638,-0.0598,-0.0627,-0.0649,-0.0642,-0.0646,-0.0648,-0.0604,-0.0602,-0.0625,-0.0625,-0.0625,0,-0.0358,-0.0378,-0.0381,-0.0387,-0.0403,-0.042,-0.0437,-0.0465,-0.0509,-0.0527,-0.0524,-0.0586,-0.059,-0.064,-0.0656,-0.0649,-0.0621,-0.0634,-0.0648,-0.0651,-0.0653,-0.0606,-0.0604,-0.0627,-0.0627,-0.0627,-0.0627,0,-0.0377,-0.0397,-0.0402,-0.0417,-0.0433,-0.0452,-0.047,-0.0498,-0.0518,-0.0546,-0.059,-0.0619,-0.0653,-0.066,-0.0666,-0.0693,-0.0658,-0.0659,-0.0638,-0.066,-0.0609,-0.0606,-0.0631,-0.063,-0.0629,-0.0629,0,0,-0.0387,-0.0412,-0.0417,-0.0432,-0.0448,-0.0469,-0.0498,-0.054,-0.0573,-0.0602,-0.0642,-0.0688,-0.0698,-0.071,-0.0726,-0.0727,-0.0714,-0.0697,-0.0695,-0.0655,-0.0664,-0.0551,-0.0536,-0.0715,-0.0715,-0.0716,-0.0615,0,-0.0406,-0.0437,-0.0444,-0.0487,-0.0506,-0.0517,-0.0548,-0.058,-0.061,-0.065,-0.0673,-0.0715,-0.0717,-0.0738,-0.0741,-0.0732,-0.071,-0.0739,-0.0645,-0.0642,-0.0542,-0.0531,-0.0717,-0.0612,-0.0611,-0.0611,-0.061,0,-0.0428,-0.0451,-0.049,-0.0531,-0.0536,-0.0567,-0.062,-0.0646,-0.0686,-0.0701,-0.0737,-0.0748,-0.0775,-0.0762,-0.0743,-0.0757,-0.0706,-0.0687,-0.0682,-0.0558,-0.0523,-0.0589,-0.0604,-0.0604,-0.0605,-0.0605,-0.0606,0,-0.0454,-0.0492,-0.0533,-0.054,-0.058,-0.0606,-0.0633,-0.0671,-0.0693,-0.0737,-0.075,-0.078,-0.0784,-0.0758,-0.0695,-0.0721,-0.0636,-0.0666,-0.0512,-0.0502,-0.0614,-0.0612,-0.0625,-0.0625,-0.0625,-0.0626,-0.0626,0,-0.0482,-0.0521,-0.0554,-0.0575,-0.0629,-0.0633,-0.0691,-0.0717,-0.0742,-0.0759,-0.078,-0.0785,-0.0781,-0.0728,-0.0684,-0.0562,-0.0615,-0.0502,-0.047,-0.0633,-0.0635,-0.0609,-0.0609,-0.0622,-0.0623,-0.0624,-0.0624,0,-0.0521,-0.0535,-0.0585,-0.0626,-0.0646,-0.0681,-0.072,-0.0751,-0.0771,-0.0789,-0.0795,-0.078,-0.0701,-0.0652,-0.058,-0.0524,-0.044,-0.0373,-0.0506,-0.0486,-0.0317,-0.0321,-0.0222,-0.0217,-0.0213,-0.021,-0.0207,0,-0.0551,-0.058,-0.0626,-0.0644,-0.0671,-0.072,-0.0748,-0.0772,-0.0785,-0.0774,-0.0768,-0.0698,-0.067,-0.048,-0.0431,-0.03,-0.0283,-0.0232,-0.0324,-0.0297,-0.0277,-0.0287,-0.0296,-0.02,-0.0199,-0.0198,-0.0197,0,-0.0603,-0.0614,-0.0643,-0.0682,-0.0714,-0.075,-0.0782,-0.0785,-0.0785,-0.0805,-0.0723,-0.0636,-0.0518,-0.0421,-0.0284,-0.0209,-0.028,-0.0191,-0.0201,-0.0287,-0.027,-0.0256,-0.027,-0.0183,-0.0185,-0.0186,-0.0187,0,-0.0633,-0.0657,-0.0676,-0.0709,-0.0747,-0.0756,-0.0775,-0.0758,-0.0759,-0.0728,-0.0687,-0.0587,-0.0539,-0.0365,-0.0255,-0.0146,-0.0154,-0.0159,-0.0171,-0.0186,-0.0208,-0.0183,-0.003,0,0,0,0,0,-0.065,-0.0659,-0.0697,-0.0719,-0.0758,-0.0772,-0.0784,-0.0786,-0.0778,-0.0709,-0.0694,-0.0575,-0.0392,-0.033,-0.02,-0.0199,-0.0144,-0.0044,-0.0159,-0.0105,-0.0121,-0.0144,0,0,0,0,0,0,-0.0642,-0.0674,-0.0692,-0.0724,-0.0743,-0.0776,-0.0774,-0.0762,-0.0717,-0.0694,-0.0598,-0.055,-0.038,-0.0471,-0.0205,-0.0172,-0.0226,0.0033,0.0036,-0.0096,-0.0111,-0.0124,-0.0153,0,0,0,0,0]}]]